KJ5IIV Weather Reports


Display with metric or nautical units.
time (UTC)temp
F
wind
direction
speed
MPH
gust
MPH
rain 1hr
in
rain 24hr
in
rain mn
in
humidity
%
barometer
mb
20260502130329 59 91 3.0 5.0 0.00 0.00 0.00 76 1019.9
20260502123814 57 52 2.0 3.0 0.00 0.00 0.00 82 1019.8
20260502123311 57 38 3.0 3.0 0.00 0.00 0.00 84 1019.9
20260502122808 56 54 2.0 4.0 0.00 0.00 0.00 86 1019.8
20260502122306 55 39 3.0 4.0 0.00 0.00 0.00 86 1019.9
20260502121803 55 63 2.0 4.0 0.00 0.00 0.00 91 1019.8
20260502121300 53 99 3.0 3.0 0.00 0.00 0.00 94 1019.7
20260502120757 51 93 2.0 3.0 0.00 0.00 0.00 94 1019.8
20260502120253 51 136 2.0 3.0 0.00 0.00 0.00 94 1019.6
20260502115751 51 106 2.0 3.0 0.00 0.00 0.00 94 1019.6
20260502115248 51 104 2.0 3.0 0.00 0.00 0.00 94 1019.4
20260502114743 51 95 2.0 2.0 0.00 0.00 0.00 94 1019.1
20260502114241 51 112 2.0 3.0 0.00 0.00 0.00 94 1018.9
20260502113738 51 103 2.0 2.0 0.00 0.00 0.00 93 1018.7
20260502113236 51 101 2.0 2.0 0.02 0.00 0.00 93 1018.7
20260502112734 51 110 2.0 2.0 0.02 0.00 0.00 93 1018.7
20260502112231 51 97 2.0 2.0 0.00 0.00 0.00 93 1018.5
20260502111728 51 109 2.0 2.0 0.00 0.00 0.00 93 1018.4
20260502111225 51 127 2.0 3.0 0.00 0.00 0.00 93 1018.2
20260502110723 51 104 2.0 3.0 0.00 0.00 0.00 93 1018.3
20260502110220 51 129 2.0 3.0 0.00 0.00 0.00 93 1018.5
20260502105718 51 137 2.0 3.0 0.00 0.00 0.00 94 1018.6
20260502105214 50 119 1.0 3.0 0.00 0.00 0.00 94 1018.4
20260502104712 50 111 2.0 3.0 0.00 0.00 0.00 94 1018.4
20260502104209 50 122 2.0 3.0 0.00 0.00 0.00 94 1018.2
20260502103707 50 135 2.0 3.0 0.00 0.00 0.00 94 1018.5
20260502103205 50 121 2.0 3.0 0.00 0.00 0.00 94 1018.5
20260502102701 50 121 2.0 3.0 0.00 0.00 0.00 94 1018.5
20260502102158 51 131 2.0 3.0 0.00 0.00 0.00 94 1018.4
20260502101656 51 116 1.0 3.0 0.00 0.00 0.00 94 1018.4
20260502101154 51 117 2.0 3.0 0.00 0.00 0.00 94 1018.4
20260502100652 51 124 2.0 3.0 0.00 0.00 0.00 94 1018.4
20260502100150 51 103 2.0 3.0 0.00 0.00 0.00 94 1018.3
20260502091124 52 111 2.0 3.0 0.00 0.00 0.00 93 1018.1
20260502090621 52 124 1.0 3.0 0.00 0.00 0.00 92 1017.9
20260502090118 52 106 1.0 2.0 0.00 0.00 0.00 92 1018.0
20260502071515 53 100 2.0 2.0 0.00 0.00 0.00 92 1018.3
20260502071014 53 104 2.0 2.0 0.00 0.00 0.00 92 1018.2
20260502070511 53 113 2.0 2.0 0.00 0.00 0.00 92 1018.0
20260502070009 53 105 1.0 2.0 0.00 0.00 0.00 92 1018.1
20260502065508 53 107 2.0 3.0 0.00 0.00 0.00 92 1018.2
20260502065005 53 109 2.0 2.0 0.00 0.00 0.00 92 1018.1
20260502064503 53 103 2.0 2.0 0.00 0.00 0.00 92 1018.1
20260502064000 53 118 2.0 2.0 0.00 0.00 0.00 92 1018.3
20260502063458 53 107 2.0 2.0 0.00 0.00 0.00 92 1018.3
20260502062955 53 103 1.0 2.0 0.00 0.00 0.00 93 1018.3
20260502062452 53 133 1.0 3.0 0.00 0.00 0.00 93 1018.1
20260502061951 53 129 2.0 2.0 0.00 0.00 0.00 93 1018.2
20260502061449 53 129 2.0 2.0 0.00 0.00 0.00 93 1018.0
20260502060944 53 131 2.0 3.0 0.00 0.00 0.00 92 1018.2
20260502060440 53 103 1.0 2.0 0.00 0.00 0.00 92 1018.1
20260502055936 53 99 2.0 3.0 0.00 0.00 0.00 92 1018.1
20260502055434 53 128 1.0 2.0 0.00 0.00 0.00 92 1018.1
20260502054929 53 111 2.0 2.0 0.00 0.00 0.00 92 1017.9
20260502054426 53 100 2.0 3.0 0.00 0.00 0.00 93 1018.1
20260502053923 53 64 2.0 2.0 0.00 0.00 0.00 93 1018.1
20260502053420 53 78 2.0 3.0 0.00 0.00 0.00 93 1018.2
20260502052918 53 99 2.0 2.0 0.00 0.00 0.00 93 1018.2
20260502052416 53 124 2.0 2.0 0.00 0.00 0.00 94 1018.2
20260502051914 53 70 1.0 2.0 0.00 0.00 0.00 94 1018.2
20260502051412 53 60 0.0 2.0 0.00 0.00 0.00 95 1018.2
20260502050908 53 116 2.0 2.0 0.00 0.00 0.00 94 1018.3
20260502050405 53 98 2.0 3.0 0.00 0.00 0.00 94 1018.4
20260502045902 53 128 2.0 2.0 0.00 0.00 0.00 94 1018.0
20260502045359 52 98 2.0 2.0 0.00 0.00 0.00 94 1018.1
20260502044856 53 122 2.0 2.0 0.00 0.06 0.06 94 1017.9
20260502044351 53 108 2.0 2.0 0.00 0.06 0.06 94 1018.0
20260502043849 53 89 0.0 2.0 0.00 0.06 0.06 94 1017.9
20260502043346 53 119 2.0 2.0 0.00 0.06 0.06 94 1018.1
20260502042846 53 99 1.0 3.0 0.00 0.06 0.06 94 1018.1
20260502042343 53 121 2.0 3.0 0.00 0.06 0.06 94 1017.9
20260502041841 53 113 2.0 3.0 0.00 0.06 0.06 94 1018.1
20260502041338 53 135 2.0 2.0 0.00 0.06 0.06 94 1018.1
20260502040835 53 111 2.0 3.0 0.00 0.06 0.06 94 1018.0
20260502040332 53 121 2.0 3.0 0.00 0.06 0.06 94 1018.0
20260502035828 54 145 2.0 2.0 0.00 0.06 0.06 94 1017.8
20260502035325 54 120 1.0 2.0 0.00 0.06 0.06 93 1017.9
20260502034822 54 98 1.0 2.0 0.00 0.06 0.06 93 1018.0
20260502034320 54 103 2.0 2.0 0.00 0.06 0.06 93 1017.9
20260502033819 54 93 0.0 2.0 0.00 0.06 0.06 92 1017.9
20260502033316 55 78 1.0 2.0 0.00 0.06 0.06 92 1017.7
20260502032812 55 87 2.0 2.0 0.00 0.06 0.06 92 1017.5
20260502032308 55 122 0.0 2.0 0.00 0.06 0.06 92 1017.6
20260502031806 55 132 0.0 2.0 0.00 0.06 0.06 91 1017.6
20260502031304 55 98 2.0 2.0 0.00 0.06 0.06 91 1017.5
20260502030803 55 34 0.0 2.0 0.00 0.06 0.06 91 1017.2
20260502030300 56 162 0.0 2.0 0.00 0.06 0.06 91 1017.4
20260502025757 56 96 2.0 2.0 0.00 0.06 0.06 91 1017.1
20260502025255 56 74 1.0 3.0 0.00 0.06 0.06 90 1017.2
20260502024753 56 334 0.0 3.0 0.00 0.06 0.06 91 1017.4
20260502024250 56 68 1.0 2.0 0.00 0.06 0.06 91 1017.2
20260502023748 56 102 1.0 2.0 0.00 0.06 0.06 90 1017.1
20260502023245 56 129 0.0 2.0 0.00 0.06 0.06 90 1017.2
20260502022743 56 130 1.0 2.0 0.00 0.06 0.06 90 1017.4
20260502022239 56 32 0.0 2.0 0.00 0.06 0.06 90 1017.6
20260502021736 56 77 0.0 2.0 0.00 0.06 0.06 90 1017.4
20260502021234 56 92 2.0 3.0 0.00 0.06 0.06 90 1017.1
20260502020731 56 94 2.0 3.0 0.00 0.06 0.06 90 1017.2
20260502020228 56 51 2.0 3.0 0.00 0.06 0.06 89 1017.1
20260502015726 56 72 2.0 2.0 0.00 0.06 0.06 88 1017.6
20260502015222 56 94 1.0 2.0 0.00 0.06 0.06 87 1017.2
20260502014720 56 120 1.0 1.0 0.00 0.06 0.06 85 1017.1
20260502014216 56 181 0.0 2.0 0.00 0.06 0.06 85 1016.8
20260502013713 57 180 0.0 2.0 0.00 0.06 0.06 86 1016.7
20260502013208 56 71 2.0 3.0 0.00 0.06 0.06 85 1016.6
20260502012705 56 96 2.0 3.0 0.00 0.06 0.06 87 1016.5
20260502012203 57 154 1.0 2.0 0.00 0.06 0.06 85 1016.4
20260502011659 57 134 3.0 3.0 0.00 0.06 0.06 85 1016.6
20260502011155 57 127 1.0 2.0 0.00 0.06 0.06 83 1016.3
20260502010653 57 74 2.0 4.0 0.00 0.06 0.06 80 1015.8
20260502010149 57 61 3.0 4.0 0.00 0.06 0.06 81 1015.7
20260502005647 58 41 3.0 4.0 0.00 0.06 0.06 80 1015.7
20260502005144 58 94 2.0 2.0 0.00 0.06 0.06 81 1016.3
20260502004640 58 102 1.0 4.0 0.00 0.06 0.06 81 1016.1
20260502004137 58 124 3.0 5.0 0.00 0.06 0.06 83 1016.0
20260502003635 58 70 1.0 2.0 0.00 0.06 0.06 82 1016.1
20260502003132 58 100 2.0 4.0 0.00 0.06 0.06 81 1015.8
20260502002628 58 82 1.0 4.0 0.00 0.06 0.06 81 1015.6
20260502002126 59 65 2.0 6.0 0.00 0.06 0.06 80 1015.6
20260502001623 59 105 5.0 6.0 0.00 0.06 0.06 80 1015.5
20260502001120 59 105 2.0 6.0 0.00 0.06 0.06 81 1015.4
20260502000618 59 46 6.0 8.0 0.00 0.06 0.06 81 1015.3
20260502000115 59 83 2.0 4.0 0.00 0.06 0.06 83 1015.4
20260501235611 59 98 3.0 4.0 0.00 0.06 0.06 82 1015.5
20260501235107 59 81 2.0 3.0 0.00 0.06 0.06 81 1015.5
20260501234603 59 98 2.0 4.0 0.00 0.06 0.06 80 1015.7
20260501234101 59 85 4.0 4.0 0.00 0.06 0.06 80 1015.8
20260501233559 60 81 3.0 3.0 0.00 0.06 0.06 78 1015.9
20260501233055 60 51 3.0 4.0 0.00 0.06 0.06 79 1015.7
20260501232551 59 71 1.0 2.0 0.00 0.06 0.06 80 1015.7
20260501232049 59 69 3.0 5.0 0.00 0.06 0.06 81 1015.3
20260501231547 59 72 3.0 4.0 0.00 0.06 0.06 82 1015.2
20260501231045 59 77 3.0 4.0 0.00 0.06 0.06 81 1015.3
20260501230543 59 52 2.0 4.0 0.00 0.06 0.06 78 1015.7
20260501230041 60 49 2.0 3.0 0.00 0.06 0.06 77 1015.9
20260501225538 60 40 4.0 4.0 0.00 0.06 0.06 76 1015.4
20260501225034 60 54 2.0 5.0 0.00 0.06 0.06 76 1015.4
20260501224532 60 58 1.0 5.0 0.00 0.06 0.06 77 1015.4
20260501224029 60 113 4.0 6.0 0.00 0.06 0.06 76 1015.1
20260501223525 60 52 3.0 6.0 0.00 0.06 0.06 75 1014.7
20260501223021 60 92 5.0 6.0 0.00 0.06 0.06 74 1014.9
20260501222518 60 64 2.0 3.0 0.00 0.06 0.06 76 1014.8
20260501222015 60 70 4.0 5.0 0.00 0.06 0.06 73 1014.8
20260501221511 60 66 3.0 4.0 0.00 0.06 0.06 73 1014.8
20260501221009 61 18 2.0 3.0 0.00 0.06 0.06 74 1014.6
20260501220507 61 79 2.0 4.0 0.00 0.06 0.06 74 1014.2
20260501220003 61 50 4.0 9.0 0.00 0.06 0.06 72 1013.9
20260501215459 61 99 4.0 6.0 0.00 0.06 0.06 73 1013.7
20260501214955 61 97 7.0 9.0 0.00 0.06 0.06 72 1013.7
20260501214450 61 45 3.0 4.0 0.00 0.06 0.06 72 1013.9
20260501213946 61 52 4.0 7.0 0.00 0.06 0.06 73 1013.9
20260501213443 60 92 4.0 6.0 0.00 0.06 0.06 74 1014.3
20260501212938 60 87 5.0 7.0 0.00 0.06 0.06 70 1014.4
20260501212436 61 61 4.0 5.0 0.00 0.06 0.06 71 1014.3
20260501211932 61 25 3.0 5.0 0.00 0.06 0.06 71 1014.5
20260501211430 61 40 3.0 6.0 0.00 0.06 0.06 71 1014.5
20260501210927 61 82 4.0 6.0 0.00 0.06 0.06 69 1014.6
20260501210424 61 21 6.0 6.0 0.00 0.06 0.06 69 1014.9
20260501205920 61 82 2.0 6.0 0.00 0.06 0.06 69 1015.1
20260501205417 61 102 4.0 7.0 0.00 0.06 0.06 70 1015.2
20260501204915 61 88 6.0 8.0 0.00 0.06 0.06 70 1015.2
20260501204410 61 102 6.0 7.0 0.00 0.06 0.06 68 1015.3
20260501203906 60 77 2.0 5.0 0.00 0.06 0.06 69 1015.6
20260501203404 61 82 2.0 11.0 0.00 0.06 0.06 67 1015.6
20260501202901 61 62 4.0 12.0 0.00 0.06 0.06 68 1015.4
20260501202358 61 79 8.0 9.0 0.00 0.06 0.06 66 1015.1
20260501201855 62 40 6.0 9.0 0.00 0.06 0.06 63 1015.0
20260501201352 62 98 6.0 10.0 0.00 0.06 0.06 65 1014.5
20260501200848 61 95 13.0 13.0 0.00 0.06 0.06 64 1014.6
20260501200345 61 80 9.0 12.0 0.00 0.06 0.06 65 1014.2
20260501195843 61 235 1.0 16.0 0.00 0.06 0.06 66 1014.1
20260501195338 62 74 4.0 13.0 0.00 0.06 0.06 66 1014.1
20260501194835 64 94 7.0 15.0 0.00 0.06 0.06 63 1013.9
20260501194331 63 53 7.0 16.0 0.00 0.06 0.06 67 1013.9
20260501193827 63 310 2.0 15.0 0.00 0.06 0.06 70 1013.9
20260501193326 62 99 7.0 13.0 0.00 0.06 0.06 69 1014.2
20260501192823 62 93 14.0 16.0 0.00 0.06 0.06 69 1014.4
20260501192320 61 55 4.0 13.0 0.00 0.06 0.06 71 1014.3
20260501191817 61 71 4.0 13.0 0.00 0.06 0.06 73 1014.5
20260501191314 60 53 4.0 15.0 0.00 0.06 0.06 74 1014.5
20260501190811 60 22 6.0 18.0 0.00 0.06 0.06 75 1014.9
20260501190307 60 70 10.0 14.0 0.00 0.06 0.06 79 1014.8
20260501185802 60 46 14.0 14.0 0.00 0.06 0.06 78 1014.9
20260501185258 59 70 10.0 12.0 0.00 0.06 0.06 79 1015.3
20260501184754 59 80 11.0 11.0 0.00 0.06 0.06 81 1015.0
20260501184250 58 66 10.0 12.0 0.00 0.06 0.06 83 1015.4
20260501183746 58 30 8.0 11.0 0.00 0.06 0.06 82 1015.8
20260501183243 58 71 3.0 8.0 0.00 0.06 0.06 85 1015.7
20260501182739 57 66 6.0 9.0 0.00 0.06 0.06 84 1015.7
20260501182237 57 72 5.0 12.0 0.00 0.06 0.06 82 1016.1
20260501181733 57 72 4.0 6.0 0.00 0.06 0.06 83 1016.3
20260501181231 56 47 3.0 13.0 0.00 0.06 0.06 82 1016.3
20260501180729 56 92 3.0 15.0 0.00 0.06 0.06 83 1016.5
20260501180224 56 14 3.0 6.0 0.00 0.06 0.06 84 1016.5
20260501175721 56 60 5.0 10.0 0.00 0.06 0.06 83 1016.6
20260501175218 56 105 6.0 8.0 0.00 0.06 0.06 86 1016.3
20260501174715 56 29 5.0 8.0 0.00 0.06 0.06 85 1016.7
20260501174212 56 39 6.0 7.0 0.00 0.06 0.06 87 1016.6
20260501173710 55 77 3.0 8.0 0.00 0.06 0.06 87 1016.3
20260501173207 55 75 4.0 10.0 0.00 0.06 0.06 87 1016.5
20260501172703 55 95 6.0 9.0 0.00 0.06 0.06 88 1016.7
20260501172157 55 52 9.0 9.0 0.00 0.06 0.06 88 1016.7
20260501171654 55 64 5.0 9.0 0.00 0.06 0.06 89 1017.0
20260501171151 55 84 8.0 9.0 0.00 0.06 0.06 89 1017.1
20260501170648 55 100 6.0 8.0 0.00 0.06 0.06 89 1017.1
20260501170145 55 102 3.0 7.0 0.00 0.06 0.06 91 1017.4
20260501165642 55 84 8.0 11.0 0.00 0.06 0.06 91 1017.4
20260501165139 55 69 5.0 9.0 0.00 0.06 0.06 91 1017.0
20260501164638 55 80 7.0 7.0 0.00 0.06 0.06 92 1017.1
20260501164134 55 87 6.0 7.0 0.00 0.06 0.06 93 1017.1
20260501163630 55 73 4.0 7.0 0.00 0.06 0.06 93 1017.2
20260501163127 54 39 6.0 7.0 0.02 0.06 0.06 93 1017.4
20260501162623 54 92 8.0 8.0 0.02 0.06 0.06 93 1017.6
20260501162120 54 69 4.0 7.0 0.02 0.06 0.06 92 1017.7
20260501161618 54 41 5.0 5.0 0.02 0.06 0.06 92 1018.0
20260501161115 54 68 3.0 5.0 0.00 0.05 0.05 92 1017.9
20260501160611 54 66 5.0 5.0 0.00 0.05 0.05 92 1017.9
20260501160108 54 72 6.0 9.0 0.00 0.05 0.05 91 1018.1
20260501155605 54 54 4.0 6.0 0.02 0.05 0.05 92 1018.1
20260501155102 54 42 4.0 7.0 0.02 0.05 0.05 92 1017.9
20260501154559 54 42 5.0 6.0 0.00 0.05 0.05 92 1017.8
20260501154056 54 85 5.0 7.0 0.02 0.05 0.05 92 1017.5
20260501153553 54 70 7.0 7.0 0.02 0.05 0.05 92 1017.4
20260501153050 54 94 5.0 9.0 0.02 0.04 0.04 92 1017.5
20260501152547 54 66 6.0 8.0 0.02 0.04 0.04 91 1017.0
20260501152044 54 73 4.0 6.0 0.02 0.04 0.04 91 1017.4
20260501151541 54 31 5.0 7.0 0.00 0.04 0.04 91 1017.6
20260501151038 54 89 4.0 6.0 0.00 0.04 0.04 91 1017.6
20260501150533 54 77 3.0 4.0 0.00 0.04 0.04 92 1017.5
20260501150030 53 53 2.0 7.0 0.00 0.04 0.04 92 1017.4
20260501145526 53 71 5.0 6.0 0.00 0.04 0.04 92 1017.1
20260501145024 53 77 2.0 3.0 0.00 0.04 0.04 92 1016.9
20260501144520 53 59 3.0 4.0 0.00 0.04 0.04 92 1017.0
20260501144015 53 47 4.0 6.0 0.00 0.04 0.04 92 1016.9
20260501143512 53 72 2.0 5.0 0.00 0.04 0.04 92 1017.1
20260501143009 53 27 2.0 8.0 0.02 0.04 0.04 92 1016.6
20260501142507 53 82 3.0 6.0 0.05 0.04 0.04 92 1016.7
20260501142002 53 50 3.0 10.0 0.05 0.03 0.03 91 1016.5
20260501141458 53 51 5.0 6.0 0.05 0.03 0.03 90 1016.8
20260501140956 53 58 2.0 5.0 0.05 0.02 0.02 90 1016.8
20260501140451 53 73 4.0 5.0 0.02 0.02 0.02 89 1016.8
20260501135948 53 68 3.0 4.0 0.02 0.02 0.02 89 1016.7
20260501135445 53 56 3.0 5.0 0.02 0.02 0.02 88 1016.6